| time (UTC) | temp C | wind direction | speed KPH | gust KPH | rain 1hr cm | rain 24hr cm | rain mn cm | humidity % | barometer mb |
| 20260509213043 | 31 | 153 | 8.0 | 14.5 | 0.00 | 0.38 | 0.38 | 47 | 1008.3 |
| 20260509212532 | 31 | 156 | 6.4 | 16.1 | 0.00 | 0.38 | 0.38 | 47 | 1008.4 |
| 20260509212032 | 31 | 212 | 9.7 | 16.1 | 0.00 | 0.38 | 0.38 | 45 | 1008.5 |
| 20260509211546 | 31 | 184 | 4.8 | 16.1 | 0.00 | 0.38 | 0.38 | 47 | 1008.4 |
| 20260509211033 | 31 | 143 | 8.0 | 16.1 | 0.00 | 0.38 | 0.38 | 47 | 1008.5 |
| 20260509210535 | 31 | 173 | 8.0 | 17.7 | 0.00 | 0.38 | 0.38 | 46 | 1008.6 |
| 20260509210052 | 31 | 221 | 11.3 | 17.7 | 0.00 | 0.38 | 0.38 | 45 | 1008.7 |
| 20260509205532 | 31 | 154 | 4.8 | 12.9 | 0.00 | 0.38 | 0.38 | 47 | 1008.8 |
| 20260509205032 | 31 | 266 | 8.0 | 14.5 | 0.00 | 0.38 | 0.38 | 46 | 1008.9 |
| 20260509204550 | 31 | 148 | 4.8 | 14.5 | 0.00 | 0.38 | 0.38 | 47 | 1009.0 |
| 20260509204032 | 31 | 186 | 8.0 | 14.5 | 0.00 | 0.38 | 0.38 | 47 | 1009.1 |
| 20260509203531 | 31 | 221 | 8.0 | 17.7 | 0.00 | 0.38 | 0.38 | 46 | 1009.3 |
| 20260509203050 | 31 | 212 | 6.4 | 17.7 | 0.00 | 0.38 | 0.38 | 46 | 1009.4 |
| 20260509202533 | 31 | 164 | 4.8 | 12.9 | 0.00 | 0.38 | 0.38 | 43 | 1009.4 |
| 20260509202034 | 31 | 115 | 8.0 | 17.7 | 0.00 | 0.38 | 0.38 | 44 | 1009.5 |
| 20260509201542 | 31 | 146 | 9.7 | 17.7 | 0.00 | 0.38 | 0.38 | 47 | 1009.4 |
| 20260509201032 | 31 | 124 | 4.8 | 14.5 | 0.00 | 0.38 | 0.38 | 47 | 1009.5 |
| 20260509200534 | 31 | 120 | 4.8 | 16.1 | 0.00 | 0.38 | 0.38 | 48 | 1009.5 |
| 20260509200056 | 31 | 208 | 9.7 | 16.1 | 0.00 | 0.38 | 0.38 | 46 | 1009.6 |
| 20260509195538 | 31 | 198 | 3.2 | 14.5 | 0.00 | 0.38 | 0.38 | 47 | 1009.6 |
| 20260509195032 | 31 | 195 | 8.0 | 20.9 | 0.00 | 0.38 | 0.38 | 47 | 1009.6 |
| 20260509194546 | 31 | 183 | 8.0 | 20.9 | 0.00 | 0.38 | 0.38 | 49 | 1009.7 |
| 20260509194032 | 31 | 157 | 11.3 | 20.9 | 0.00 | 0.38 | 0.38 | 49 | 1009.7 |
| 20260509193533 | 31 | 244 | 6.4 | 14.5 | 0.00 | 0.38 | 0.38 | 48 | 1009.8 |
| 20260509193038 | 31 | 186 | 6.4 | 12.9 | 0.00 | 0.38 | 0.38 | 52 | 1009.8 |
| 20260509192534 | 31 | 213 | 6.4 | 9.7 | 0.00 | 0.38 | 0.38 | 52 | 1009.9 |
| 20260509192035 | 30 | 233 | 3.2 | 11.3 | 0.00 | 0.38 | 0.38 | 52 | 1009.9 |
| 20260509191547 | 30 | 131 | 6.4 | 11.3 | 0.00 | 0.38 | 0.38 | 51 | 1009.9 |
| 20260509191033 | 30 | 256 | 4.8 | 8.0 | 0.00 | 0.38 | 0.38 | 52 | 1010.1 |
| 20260509190532 | 30 | 316 | 1.6 | 9.7 | 0.00 | 0.38 | 0.38 | 52 | 1010.1 |
| 20260509190057 | 30 | 116 | 3.2 | 9.7 | 0.00 | 0.38 | 0.38 | 55 | 1010.2 |
| 20260509185533 | 30 | 83 | 6.4 | 11.3 | 0.00 | 0.38 | 0.38 | 52 | 1010.3 |
| 20260509185035 | 30 | 184 | 4.8 | 11.3 | 0.00 | 0.38 | 0.38 | 53 | 1010.3 |
| 20260509184558 | 30 | 143 | 4.8 | 12.9 | 0.00 | 0.38 | 0.38 | 54 | 1010.3 |
| 20260509184032 | 30 | 235 | 0.0 | 12.9 | 0.00 | 0.38 | 0.38 | 55 | 1010.5 |
| 20260509183532 | 30 | 180 | 1.6 | 11.3 | 0.00 | 0.38 | 0.38 | 56 | 1010.5 |
| 20260509183039 | 30 | 68 | 1.6 | 6.4 | 0.00 | 0.38 | 0.38 | 55 | 1010.6 |
| 20260509182532 | 29 | 141 | 3.2 | 9.7 | 0.00 | 0.38 | 0.38 | 56 | 1010.6 |
| 20260509182032 | 29 | 329 | 3.2 | 9.7 | 0.00 | 0.38 | 0.38 | 60 | 1010.7 |
| 20260509181545 | 28 | 285 | 3.2 | 6.4 | 0.00 | 0.38 | 0.38 | 58 | 1010.7 |
| 20260509181032 | 28 | 115 | 3.2 | 9.7 | 0.00 | 0.38 | 0.38 | 59 | 1010.8 |
| 20260509180534 | 28 | 100 | 1.6 | 9.7 | 0.00 | 0.38 | 0.38 | 58 | 1010.9 |
| 20260509180045 | 28 | 259 | 3.2 | 9.7 | 0.00 | 0.38 | 0.38 | 57 | 1011.0 |
| 20260509175536 | 28 | 147 | 1.6 | 6.4 | 0.00 | 0.38 | 0.38 | 61 | 1011.1 |
| 20260509175032 | 28 | 69 | 1.6 | 8.0 | 0.00 | 0.38 | 0.38 | 60 | 1011.1 |
| 20260509174543 | 28 | 37 | 1.6 | 9.7 | 0.00 | 0.38 | 0.38 | 63 | 1011.3 |
| 20260509174035 | 28 | 37 | 4.8 | 9.7 | 0.00 | 0.38 | 0.38 | 58 | 1011.3 |
| 20260509173536 | 28 | 207 | 3.2 | 8.0 | 0.00 | 0.38 | 0.38 | 61 | 1011.4 |
| 20260509173039 | 28 | 177 | 3.2 | 9.7 | 0.00 | 0.38 | 0.38 | 60 | 1011.4 |
| 20260509172534 | 28 | 0 | 4.8 | 14.5 | 0.00 | 0.38 | 0.38 | 61 | 1011.4 |
| 20260509172033 | 27 | 247 | 6.4 | 14.5 | 0.00 | 0.38 | 0.38 | 61 | 1011.4 |
| 20260509171540 | 27 | 271 | 4.8 | 11.3 | 0.00 | 0.38 | 0.38 | 62 | 1011.4 |
| 20260509171032 | 27 | 291 | 4.8 | 12.9 | 0.00 | 0.38 | 0.38 | 64 | 1011.5 |
| 20260509170532 | 27 | 270 | 4.8 | 12.9 | 0.00 | 0.38 | 0.38 | 70 | 1011.5 |
| 20260509170038 | 27 | 224 | 3.2 | 11.3 | 0.00 | 0.38 | 0.38 | 67 | 1011.5 |
| 20260509165532 | 27 | 278 | 3.2 | 8.0 | 0.00 | 0.38 | 0.38 | 70 | 1011.6 |
| 20260509165032 | 27 | 291 | 4.8 | 11.3 | 0.00 | 0.38 | 0.38 | 74 | 1011.5 |
| 20260509164544 | 26 | 337 | 4.8 | 11.3 | 0.00 | 0.38 | 0.38 | 71 | 1011.6 |
| 20260509164036 | 26 | 270 | 4.8 | 9.7 | 0.00 | 0.38 | 0.38 | 72 | 1011.7 |
| 20260509163532 | 26 | 284 | 4.8 | 11.3 | 0.00 | 0.38 | 0.38 | 70 | 1011.7 |
| 20260509163049 | 26 | 335 | 6.4 | 16.1 | 0.00 | 0.38 | 0.38 | 71 | 1011.8 |
| 20260509162539 | 26 | 268 | 9.7 | 16.1 | 0.00 | 0.38 | 0.38 | 74 | 1011.8 |
| 20260509162035 | 26 | 265 | 9.7 | 16.1 | 0.00 | 0.38 | 0.38 | 73 | 1011.8 |
| 20260509161539 | 26 | 262 | 8.0 | 14.5 | 0.00 | 0.38 | 0.38 | 72 | 1011.8 |
| 20260509161033 | 26 | 273 | 8.0 | 16.1 | 0.00 | 0.38 | 0.38 | 72 | 1012.0 |
| 20260509160533 | 26 | 299 | 8.0 | 20.9 | 0.00 | 0.38 | 0.38 | 74 | 1011.9 |
| 20260509160039 | 25 | 306 | 11.3 | 20.9 | 0.00 | 0.38 | 0.38 | 73 | 1011.9 |
| 20260509155538 | 25 | 278 | 6.4 | 11.3 | 0.00 | 0.38 | 0.38 | 75 | 1011.9 |
| 20260509155034 | 25 | 236 | 4.8 | 11.3 | 0.00 | 0.38 | 0.38 | 75 | 1011.9 |
| 20260509154550 | 25 | 276 | 4.8 | 9.7 | 0.00 | 0.38 | 0.38 | 76 | 1011.9 |
| 20260509154033 | 25 | 288 | 3.2 | 9.7 | 0.00 | 0.38 | 0.38 | 75 | 1011.9 |
| 20260509153535 | 25 | 298 | 4.8 | 12.9 | 0.00 | 0.38 | 0.38 | 75 | 1012.0 |
| 20260509153047 | 24 | 321 | 4.8 | 16.1 | 0.00 | 0.38 | 0.38 | 77 | 1011.9 |
| 20260509152532 | 24 | 290 | 4.8 | 16.1 | 0.00 | 0.38 | 0.38 | 77 | 1011.9 |
| 20260509152033 | 23 | 293 | 8.0 | 16.1 | 0.00 | 0.38 | 0.38 | 75 | 1011.9 |
| 20260509151554 | 23 | 276 | 6.4 | 12.9 | 0.00 | 0.38 | 0.38 | 76 | 1011.9 |
| 20260509151036 | 23 | 290 | 3.2 | 9.7 | 0.00 | 0.38 | 0.38 | 76 | 1011.8 |
| 20260509150535 | 23 | 295 | 1.6 | 6.4 | 0.00 | 0.38 | 0.38 | 76 | 1011.9 |
| 20260509150042 | 23 | 300 | 3.2 | 6.4 | 0.00 | 0.38 | 0.38 | 77 | 1011.9 |
| 20260509145533 | 23 | 341 | 1.6 | 8.0 | 0.00 | 0.38 | 0.38 | 77 | 1012.0 |
| 20260509145034 | 23 | 278 | 4.8 | 8.0 | 0.00 | 0.38 | 0.38 | 77 | 1012.0 |
| 20260509144547 | 23 | 0 | 0.0 | 4.8 | 0.00 | 0.38 | 0.38 | 78 | 1012.1 |
| 20260509144034 | 22 | 357 | 0.0 | 4.8 | 0.00 | 0.38 | 0.38 | 77 | 1012.1 |
| 20260509143534 | 22 | 52 | 0.0 | 4.8 | 0.00 | 0.38 | 0.38 | 79 | 1012.1 |
| 20260509143054 | 21 | 322 | 3.2 | 6.4 | 0.00 | 0.38 | 0.38 | 80 | 1012.1 |
| 20260509142532 | 21 | 319 | 3.2 | 6.4 | 0.00 | 0.38 | 0.38 | 82 | 1012.0 |
| 20260509142032 | 21 | 353 | 1.6 | 9.7 | 0.00 | 0.38 | 0.38 | 84 | 1012.0 |
| 20260509141558 | 21 | 8 | 4.8 | 9.7 | 0.00 | 0.38 | 0.38 | 83 | 1012.0 |
| 20260509141033 | 21 | 347 | 3.2 | 6.4 | 0.00 | 0.38 | 0.38 | 83 | 1012.1 |
| 20260509140532 | 20 | 333 | 3.2 | 6.4 | 0.00 | 0.38 | 0.38 | 83 | 1012.1 |
| 20260509140054 | 20 | 323 | 3.2 | 9.7 | 0.00 | 0.38 | 0.38 | 84 | 1012.0 |
| 20260509135533 | 20 | 332 | 1.6 | 9.7 | 0.00 | 0.38 | 0.38 | 84 | 1012.0 |
| 20260509135036 | 20 | 316 | 4.8 | 9.7 | 0.00 | 0.38 | 0.38 | 84 | 1012.0 |
| 20260509134550 | 20 | 352 | 6.4 | 9.7 | 0.00 | 0.38 | 0.38 | 85 | 1011.9 |
| 20260509134032 | 20 | 35 | 3.2 | 9.7 | 0.00 | 0.38 | 0.38 | 86 | 1011.8 |
| 20260509133532 | 19 | 350 | 4.8 | 9.7 | 0.00 | 0.38 | 0.38 | 87 | 1011.8 |
| 20260509133047 | 18 | 351 | 4.8 | 6.4 | 0.00 | 0.38 | 0.38 | 89 | 1011.7 |
| 20260509132533 | 18 | 4 | 1.6 | 3.2 | 0.00 | 0.38 | 0.38 | 90 | 1011.6 |
| 20260509132034 | 18 | 313 | 0.0 | 1.6 | 0.00 | 0.38 | 0.38 | 90 | 1011.5 |
| 20260509131545 | 17 | 0 | 0.0 | 1.6 | 0.00 | 0.38 | 0.38 | 90 | 1011.6 |
| 20260509131032 | 17 | 0 | 0.0 | 3.2 | 0.00 | 0.38 | 0.38 | 91 | 1011.4 |
| 20260509130537 | 17 | 0 | 0.0 | 3.2 | 0.00 | 0.38 | 0.38 | 92 | 1011.3 |
| 20260509130043 | 17 | 358 | 0.0 | 1.6 | 0.00 | 0.38 | 0.38 | 92 | 1011.2 |
| 20260509125533 | 17 | 302 | 0.0 | 1.6 | 0.00 | 0.38 | 0.38 | 93 | 1011.1 |
| 20260509125033 | 16 | 0 | 0.0 | 1.6 | 0.00 | 0.38 | 0.38 | 93 | 1011.0 |
| 20260509124548 | 16 | 0 | 0.0 | 1.6 | 0.00 | 0.38 | 0.38 | 93 | 1011.0 |
| 20260509124033 | 16 | 0 | 0.0 | 3.2 | 0.00 | 0.38 | 0.38 | 93 | 1010.8 |
| 20260509123533 | 16 | 0 | 0.0 | 4.8 | 0.00 | 0.38 | 0.38 | 93 | 1010.8 |
| 20260509123052 | 16 | 27 | 0.0 | 4.8 | 0.00 | 0.38 | 0.38 | 93 | 1010.6 |
| 20260509122533 | 16 | 27 | 3.2 | 6.4 | 0.00 | 0.38 | 0.38 | 92 | 1010.5 |
| 20260509122034 | 16 | 349 | 1.6 | 6.4 | 0.00 | 0.38 | 0.38 | 92 | 1010.4 |
| 20260509121547 | 16 | 345 | 3.2 | 6.4 | 0.00 | 0.38 | 0.38 | 92 | 1010.3 |
| 20260509121032 | 16 | 15 | 1.6 | 4.8 | 0.00 | 0.38 | 0.38 | 92 | 1010.3 |
| 20260509120534 | 16 | 1 | 3.2 | 4.8 | 0.00 | 0.38 | 0.38 | 91 | 1010.2 |
| 20260509120049 | 16 | 8 | 3.2 | 4.8 | 0.00 | 0.38 | 0.38 | 91 | 1010.1 |
| 20260509115533 | 16 | 7 | 3.2 | 4.8 | 0.00 | 0.38 | 0.38 | 91 | 1010.1 |
| 20260509115033 | 16 | 343 | 1.6 | 6.4 | 0.00 | 0.38 | 0.38 | 91 | 1010.0 |
| 20260509114549 | 16 | 316 | 1.6 | 6.4 | 0.00 | 0.38 | 0.38 | 90 | 1010.0 |
| 20260509114033 | 16 | 346 | 1.6 | 8.0 | 0.00 | 0.38 | 0.38 | 90 | 1010.0 |
| 20260509113533 | 17 | 332 | 1.6 | 8.0 | 0.00 | 0.38 | 0.38 | 89 | 1010.0 |
| 20260509113100 | 17 | 339 | 4.8 | 8.0 | 0.00 | 0.38 | 0.38 | 88 | 1010.0 |
| 20260509112533 | 17 | 304 | 3.2 | 8.0 | 0.00 | 0.38 | 0.38 | 87 | 1010.0 |
| 20260509112033 | 17 | 345 | 3.2 | 6.4 | 0.00 | 0.38 | 0.38 | 86 | 1009.9 |
| 20260509111547 | 17 | 1 | 3.2 | 6.4 | 0.00 | 0.38 | 0.38 | 86 | 1009.9 |
| 20260509111033 | 17 | 303 | 3.2 | 9.7 | 0.00 | 0.38 | 0.38 | 86 | 1009.8 |
| 20260509110533 | 17 | 323 | 4.8 | 16.1 | 0.00 | 0.38 | 0.38 | 87 | 1009.6 |
| 20260509110042 | 17 | 326 | 8.0 | 16.1 | 0.00 | 0.38 | 0.38 | 87 | 1009.7 |
| 20260509105532 | 17 | 297 | 9.7 | 16.1 | 0.00 | 0.38 | 0.38 | 87 | 1009.4 |
| 20260509105033 | 17 | 321 | 4.8 | 9.7 | 0.00 | 0.38 | 0.38 | 86 | 1009.2 |
| 20260509104556 | 18 | 309 | 3.2 | 6.4 | 0.00 | 0.38 | 0.38 | 86 | 1008.8 |
| 20260509104032 | 18 | 301 | 0.0 | 4.8 | 0.00 | 0.38 | 0.38 | 84 | 1008.6 |
| 20260509103533 | 18 | 0 | 0.0 | 9.7 | 0.00 | 0.38 | 0.38 | 87 | 1008.3 |
| 20260509103057 | 18 | 0 | 3.2 | 11.3 | 0.00 | 0.38 | 0.38 | 88 | 1008.1 |
| 20260509102532 | 18 | 54 | 6.4 | 11.3 | 0.00 | 0.38 | 0.38 | 91 | 1008.0 |
| 20260509102033 | 17 | 70 | 6.4 | 11.3 | 0.00 | 0.38 | 0.38 | 95 | 1008.1 |
| 20260509101539 | 17 | 127 | 4.8 | 11.3 | 0.00 | 0.38 | 0.38 | 97 | 1008.4 |
| 20260509101033 | 17 | 148 | 6.4 | 11.3 | 0.00 | 0.38 | 0.38 | 98 | 1008.5 |
| 20260509100532 | 17 | 184 | 6.4 | 9.7 | 0.00 | 0.38 | 0.38 | 98 | 1008.2 |
| 20260509100105 | 17 | 210 | 3.2 | 9.7 | 0.00 | 0.38 | 0.38 | 98 | 1008.6 |
| 20260509095533 | 16 | 141 | 3.2 | 9.7 | 0.00 | 0.38 | 0.38 | 98 | 1008.9 |
| 20260509095034 | 16 | 0 | 3.2 | 9.7 | 0.00 | 0.38 | 0.38 | 98 | 1009.1 |
| 20260509094549 | 16 | 105 | 1.6 | 6.4 | 0.00 | 0.38 | 0.38 | 98 | 1009.3 |
| 20260509094033 | 16 | 261 | 3.2 | 12.9 | 0.00 | 0.38 | 0.38 | 98 | 1009.8 |
| 20260509093535 | 16 | 0 | 8.0 | 16.1 | 0.00 | 0.38 | 0.38 | 98 | 1010.2 |
| 20260509093045 | 16 | 57 | 12.9 | 19.3 | 0.00 | 0.38 | 0.38 | 98 | 1010.3 |
| 20260509092531 | 16 | 72 | 6.4 | 27.4 | 0.00 | 0.38 | 0.38 | 98 | 1010.1 |
| 20260509092032 | 16 | 241 | 11.3 | 27.4 | 0.00 | 0.38 | 0.38 | 98 | 1010.2 |
| 20260509091541 | 16 | 230 | 12.9 | 27.4 | 0.00 | 0.38 | 0.38 | 98 | 1009.6 |
| 20260509091032 | 16 | 289 | 14.5 | 30.6 | 0.00 | 0.38 | 0.38 | 98 | 1009.4 |
| 20260509090533 | 16 | 245 | 16.1 | 30.6 | 0.03 | 0.38 | 0.38 | 98 | 1009.9 |
| 20260509090045 | 16 | 186 | 19.3 | 29.0 | 0.03 | 0.38 | 0.38 | 98 | 1009.2 |
| 20260509085534 | 16 | 169 | 16.1 | 25.7 | 0.03 | 0.38 | 0.38 | 98 | 1009.9 |
| 20260509085032 | 16 | 153 | 12.9 | 19.3 | 0.05 | 0.38 | 0.38 | 98 | 1010.4 |
| 20260509084546 | 16 | 172 | 6.4 | 16.1 | 0.08 | 0.38 | 0.38 | 98 | 1010.9 |
| 20260509084033 | 16 | 136 | 4.8 | 17.7 | 0.15 | 0.38 | 0.38 | 97 | 1010.8 |
| 20260509083534 | 16 | 168 | 8.0 | 17.7 | 0.25 | 0.38 | 0.38 | 97 | 1010.9 |
| 20260509083045 | 16 | 199 | 4.8 | 12.9 | 0.33 | 0.38 | 0.38 | 97 | 1011.0 |
| 20260509082532 | 16 | 252 | 6.4 | 11.3 | 0.36 | 0.38 | 0.38 | 97 | 1011.2 |
| 20260509082033 | 16 | 152 | 6.4 | 11.3 | 0.38 | 0.38 | 0.38 | 97 | 1011.1 |
| 20260509081541 | 16 | 182 | 4.8 | 12.9 | 0.38 | 0.38 | 0.38 | 97 | 1011.6 |
| 20260509081033 | 16 | 150 | 8.0 | 12.9 | 0.38 | 0.38 | 0.38 | 97 | 1011.4 |
| 20260509080534 | 17 | 134 | 9.7 | 16.1 | 0.36 | 0.36 | 0.36 | 97 | 1011.6 |
| 20260509080045 | 17 | 141 | 9.7 | 16.1 | 0.36 | 0.36 | 0.36 | 97 | 1011.9 |
| 20260509075532 | 17 | 131 | 6.4 | 12.9 | 0.36 | 0.36 | 0.36 | 97 | 1012.2 |
| 20260509075032 | 17 | 96 | 6.4 | 12.9 | 0.33 | 0.33 | 0.33 | 96 | 1012.2 |
| 20260509074545 | 17 | 80 | 8.0 | 17.7 | 0.30 | 0.30 | 0.30 | 95 | 1012.6 |
| 20260509074035 | 18 | 48 | 8.0 | 25.7 | 0.23 | 0.23 | 0.23 | 91 | 1012.9 |
| 20260509073532 | 18 | 51 | 11.3 | 25.7 | 0.10 | 0.10 | 0.10 | 90 | 1012.7 |
| 20260509073048 | 19 | 65 | 14.5 | 25.7 | 0.05 | 0.05 | 0.05 | 91 | 1012.4 |
| 20260509072533 | 19 | 60 | 8.0 | 17.7 | 0.03 | 0.03 | 0.03 | 94 | 1012.6 |
| 20260509072032 | 19 | 63 | 9.7 | 29.0 | 0.00 | 0.00 | 0.00 | 95 | 1012.5 |
| 20260509071542 | 19 | 51 | 16.1 | 29.0 | 0.00 | 0.00 | 0.00 | 95 | 1012.5 |
| 20260509071033 | 18 | 15 | 11.3 | 20.9 | 0.00 | 0.00 | 0.00 | 97 | 1012.7 |
| 20260509070533 | 18 | 18 | 11.3 | 14.5 | 0.00 | 0.00 | 0.00 | 97 | 1012.8 |
| 20260509070041 | 18 | 26 | 8.0 | 12.9 | 0.00 | 0.00 | 0.00 | 97 | 1012.7 |
| 20260509065532 | 18 | 11 | 8.0 | 22.5 | 0.00 | 0.00 | 0.00 | 97 | 1012.9 |
| 20260509065032 | 18 | 35 | 11.3 | 22.5 | 0.00 | 0.00 | 0.00 | 97 | 1012.8 |
| 20260509064540 | 17 | 15 | 12.9 | 17.7 | 0.00 | 0.00 | 0.00 | 97 | 1012.7 |
| 20260509064033 | 17 | 20 | 8.0 | 11.3 | 0.00 | 0.00 | 0.00 | 97 | 1012.1 |
| 20260509063533 | 17 | 12 | 8.0 | 11.3 | 0.00 | 0.00 | 0.00 | 97 | 1011.7 |
| 20260509063054 | 17 | 1 | 3.2 | 4.8 | 0.00 | 0.00 | 0.00 | 96 | 1010.8 |
| 20260509062533 | 17 | 41 | 1.6 | 4.8 | 0.00 | 0.00 | 0.00 | 96 | 1010.0 |
| 20260509062032 | 17 | 0 | 0.0 | 3.2 | 0.00 | 0.00 | 0.00 | 96 | 1009.8 |
| 20260509061556 | 17 | 0 | 0.0 | 3.2 | 0.00 | 0.00 | 0.00 | 96 | 1009.8 |
| 20260509061033 | 17 | 0 | 0.0 | 0.0 | 0.00 | 0.00 | 0.00 | 96 | 1009.9 |
| 20260509060533 | 17 | 0 | 0.0 | 0.0 | 0.00 | 0.00 | 0.00 | 95 | 1009.9 |
| 20260509060044 | 17 | 0 | 0.0 | 3.2 | 0.00 | 0.00 | 0.00 | 95 | 1010.0 |
| 20260509055537 | 17 | 0 | 1.6 | 3.2 | 0.00 | 0.00 | 0.00 | 95 | 1010.0 |
| 20260509055032 | 17 | 101 | 1.6 | 3.2 | 0.00 | 0.00 | 0.00 | 95 | 1009.9 |
| 20260509054551 | 18 | 116 | 1.6 | 4.8 | 0.00 | 0.00 | 0.00 | 95 | 1009.8 |
| 20260509054032 | 18 | 143 | 1.6 | 4.8 | 0.00 | 0.00 | 0.00 | 95 | 1009.9 |
| 20260509053533 | 18 | 139 | 1.6 | 8.0 | 0.00 | 0.00 | 0.00 | 95 | 1010.0 |
| 20260509053059 | 18 | 165 | 1.6 | 8.0 | 0.00 | 0.00 | 0.00 | 95 | 1010.1 |
| 20260509052533 | 18 | 135 | 4.8 | 8.0 | 0.00 | 0.00 | 0.00 | 95 | 1010.1 |
| 20260509052032 | 18 | 142 | 3.2 | 8.0 | 0.00 | 0.00 | 0.00 | 95 | 1010.2 |
| 20260509051549 | 18 | 162 | 3.2 | 8.0 | 0.00 | 0.00 | 0.00 | 95 | 1010.1 |
| 20260509051034 | 18 | 168 | 4.8 | 9.7 | 0.00 | 0.00 | 0.00 | 95 | 1010.1 |
| 20260509050533 | 18 | 163 | 4.8 | 11.3 | 0.00 | 0.00 | 0.00 | 95 | 1010.1 |
| 20260509050050 | 18 | 195 | 4.8 | 11.3 | 0.00 | 0.00 | 0.00 | 95 | 1010.0 |
| 20260509045533 | 18 | 148 | 6.4 | 11.3 | 0.00 | 0.00 | 0.00 | 95 | 1010.0 |
| 20260509045033 | 18 | 132 | 3.2 | 9.7 | 0.00 | 0.00 | 0.00 | 95 | 1010.0 |
| 20260509044547 | 18 | 125 | 4.8 | 9.7 | 0.00 | 0.00 | 0.00 | 94 | 1009.9 |
| 20260509044035 | 18 | 148 | 4.8 | 8.0 | 0.00 | 0.00 | 0.00 | 95 | 1009.9 |
| 20260509043532 | 18 | 127 | 3.2 | 8.0 | 0.00 | 0.00 | 0.00 | 95 | 1010.0 |
| 20260509043046 | 18 | 141 | 3.2 | 4.8 | 0.00 | 0.00 | 0.00 | 94 | 1010.2 |
| 20260509042533 | 18 | 129 | 1.6 | 3.2 | 0.00 | 0.00 | 0.00 | 94 | 1010.3 |
| 20260509042037 | 18 | 127 | 0.0 | 3.2 | 0.00 | 0.00 | 0.00 | 94 | 1010.4 |
| 20260509041548 | 18 | 101 | 1.6 | 3.2 | 0.00 | 0.00 | 0.00 | 93 | 1010.4 |
| 20260509041034 | 18 | 110 | 1.6 | 3.2 | 0.00 | 0.00 | 0.00 | 93 | 1010.3 |
| 20260509040532 | 18 | 123 | 0.0 | 3.2 | 0.00 | 0.00 | 0.00 | 93 | 1010.2 |
| 20260509040042 | 18 | 125 | 0.0 | 6.4 | 0.00 | 0.00 | 0.00 | 93 | 1010.1 |
| 20260509035532 | 19 | 125 | 1.6 | 6.4 | 0.00 | 0.00 | 0.00 | 92 | 1010.1 |
| 20260509035033 | 19 | 145 | 4.8 | 6.4 | 0.00 | 0.00 | 0.00 | 93 | 1010.0 |
| 20260509034550 | 19 | 158 | 4.8 | 6.4 | 0.00 | 0.00 | 0.00 | 93 | 1009.9 |
| 20260509034034 | 19 | 156 | 1.6 | 4.8 | 0.00 | 0.00 | 0.00 | 92 | 1009.8 |
| 20260509033534 | 19 | 141 | 3.2 | 4.8 | 0.00 | 0.00 | 0.00 | 92 | 1009.9 |
| 20260509033045 | 19 | 131 | 3.2 | 4.8 | 0.00 | 0.00 | 0.00 | 91 | 1009.8 |
| 20260509032533 | 20 | 146 | 1.6 | 4.8 | 0.00 | 0.00 | 0.00 | 92 | 1009.8 |
| 20260509032032 | 20 | 167 | 3.2 | 4.8 | 0.00 | 0.00 | 0.00 | 91 | 1009.8 |
| 20260509031545 | 20 | 136 | 3.2 | 4.8 | 0.00 | 0.00 | 0.00 | 91 | 1009.7 |
| 20260509031034 | 20 | 138 | 1.6 | 6.4 | 0.00 | 0.00 | 0.00 | 91 | 1009.8 |
| 20260509030534 | 20 | 168 | 1.6 | 8.0 | 0.00 | 0.00 | 0.00 | 90 | 1009.6 |
| 20260509030049 | 20 | 121 | 4.8 | 8.0 | 0.00 | 0.00 | 0.00 | 90 | 1009.6 |
| 20260509025533 | 20 | 134 | 3.2 | 8.0 | 0.00 | 0.00 | 0.00 | 89 | 1009.4 |
| 20260509025032 | 20 | 158 | 4.8 | 8.0 | 0.00 | 0.00 | 0.00 | 89 | 1009.4 |
| 20260509024539 | 20 | 155 | 1.6 | 8.0 | 0.00 | 0.00 | 0.00 | 89 | 1009.5 |
| 20260509024033 | 20 | 150 | 4.8 | 8.0 | 0.00 | 0.00 | 0.00 | 89 | 1009.5 |
| 20260509023533 | 20 | 135 | 3.2 | 4.8 | 0.00 | 0.00 | 0.00 | 89 | 1009.6 |
| 20260509023039 | 20 | 134 | 3.2 | 4.8 | 0.00 | 0.00 | 0.00 | 88 | 1009.6 |
| 20260509022533 | 21 | 117 | 3.2 | 6.4 | 0.00 | 0.00 | 0.00 | 87 | 1009.4 |
| 20260509022032 | 21 | 133 | 3.2 | 8.0 | 0.00 | 0.00 | 0.00 | 87 | 1009.4 |
| 20260509021548 | 21 | 108 | 4.8 | 9.7 | 0.00 | 0.00 | 0.00 | 86 | 1009.3 |
| 20260509021032 | 21 | 98 | 6.4 | 9.7 | 0.00 | 0.00 | 0.00 | 86 | 1009.3 |
| 20260509020533 | 21 | 107 | 4.8 | 8.0 | 0.00 | 0.00 | 0.00 | 86 | 1009.2 |
| 20260509020044 | 21 | 122 | 4.8 | 8.0 | 0.00 | 0.00 | 0.00 | 86 | 1009.1 |
| 20260509015533 | 21 | 122 | 4.8 | 9.7 | 0.00 | 0.00 | 0.00 | 85 | 1009.0 |
| 20260509015033 | 21 | 123 | 4.8 | 9.7 | 0.00 | 0.00 | 0.00 | 85 | 1008.9 |
| 20260509014542 | 21 | 99 | 4.8 | 11.3 | 0.00 | 0.00 | 0.00 | 85 | 1008.9 |
| 20260509014035 | 22 | 129 | 6.4 | 12.9 | 0.00 | 0.00 | 0.00 | 84 | 1008.7 |
| 20260509013532 | 22 | 138 | 8.0 | 12.9 | 0.00 | 0.00 | 0.00 | 84 | 1008.6 |
| 20260509013039 | 22 | 133 | 6.4 | 9.7 | 0.00 | 0.00 | 0.00 | 84 | 1008.6 |
| 20260509012535 | 22 | 132 | 6.4 | 11.3 | 0.00 | 0.00 | 0.00 | 84 | 1008.5 |
| 20260509012033 | 22 | 138 | 6.4 | 11.3 | 0.00 | 0.00 | 0.00 | 83 | 1008.4 |
| 20260509011545 | 22 | 109 | 6.4 | 14.5 | 0.00 | 0.00 | 0.00 | 83 | 1008.5 |
| 20260509011033 | 22 | 134 | 8.0 | 14.5 | 0.00 | 0.00 | 0.00 | 83 | 1008.5 |
| 20260509010532 | 22 | 149 | 6.4 | 14.5 | 0.00 | 0.00 | 0.00 | 83 | 1008.3 |
| 20260509010046 | 22 | 115 | 8.0 | 14.5 | 0.00 | 0.00 | 0.00 | 83 | 1008.2 |
| 20260509005534 | 22 | 134 | 8.0 | 11.3 | 0.00 | 0.00 | 0.00 | 83 | 1008.2 |
| 20260509005032 | 22 | 120 | 3.2 | 9.7 | 0.00 | 0.00 | 0.00 | 82 | 1008.3 |
| 20260509004540 | 22 | 143 | 4.8 | 12.9 | 0.00 | 0.00 | 0.00 | 81 | 1008.3 |
| 20260509004032 | 22 | 136 | 6.4 | 12.9 | 0.00 | 0.00 | 0.00 | 80 | 1008.2 |
| 20260509003532 | 23 | 139 | 8.0 | 12.9 | 0.00 | 0.00 | 0.00 | 79 | 1008.2 |
| 20260509003044 | 23 | 149 | 8.0 | 14.5 | 0.00 | 0.00 | 0.00 | 79 | 1008.2 |
| 20260509002534 | 23 | 141 | 8.0 | 16.1 | 0.00 | 0.00 | 0.00 | 79 | 1008.2 |
| 20260509002032 | 23 | 150 | 11.3 | 16.1 | 0.00 | 0.00 | 0.00 | 78 | 1008.3 |
| 20260509001542 | 23 | 139 | 8.0 | 16.1 | 0.00 | 0.00 | 0.00 | 79 | 1008.3 |
| 20260509001033 | 23 | 100 | 9.7 | 19.3 | 0.00 | 0.00 | 0.00 | 79 | 1008.1 |
| 20260509000531 | 23 | 141 | 12.9 | 19.3 | 0.00 | 0.00 | 0.00 | 78 | 1008.2 |
| 20260509000039 | 23 | 146 | 14.5 | 19.3 | 0.00 | 0.00 | 0.00 | 78 | 1008.1 |
| 20260508235534 | 23 | 131 | 8.0 | 17.7 | 0.00 | 0.00 | 0.00 | 78 | 1008.2 |
| 20260508235032 | 23 | 148 | 8.0 | 17.7 | 0.00 | 0.00 | 0.00 | 78 | 1008.2 |
| 20260508234553 | 24 | 145 | 9.7 | 17.7 | 0.00 | 0.00 | 0.00 | 77 | 1008.2 |
| 20260508234033 | 23 | 113 | 11.3 | 17.7 | 0.00 | 0.00 | 0.00 | 77 | 1008.2 |
| 20260508233537 | 24 | 172 | 9.7 | 20.9 | 0.00 | 0.00 | 0.00 | 78 | 1008.3 |
| 20260508233039 | 23 | 148 | 12.9 | 20.9 | 0.00 | 0.00 | 0.00 | 77 | 1008.2 |
| 20260508232532 | 23 | 121 | 11.3 | 17.7 | 0.00 | 0.00 | 0.00 | 78 | 1008.1 |
| 20260508232037 | 23 | 210 | 12.9 | 17.7 | 0.00 | 0.00 | 0.00 | 78 | 1008.1 |
| 20260508231621 | 23 | 140 | 11.3 | 19.3 | 0.00 | 0.00 | 0.00 | 79 | 1008.2 |
| 20260508231032 | 23 | 142 | 9.7 | 20.9 | 0.00 | 0.00 | 0.00 | 78 | 1008.3 |
| 20260508230534 | 23 | 170 | 9.7 | 20.9 | 0.00 | 0.00 | 0.00 | 78 | 1008.3 |
| 20260508230056 | 23 | 214 | 11.3 | 20.9 | 0.00 | 0.00 | 0.00 | 78 | 1008.3 |
| 20260508225535 | 23 | 133 | 6.4 | 14.5 | 0.00 | 0.00 | 0.00 | 78 | 1008.5 |
| 20260508225034 | 23 | 128 | 9.7 | 14.5 | 0.00 | 0.00 | 0.00 | 78 | 1008.5 |
| 20260508224542 | 23 | 142 | 9.7 | 14.5 | 0.00 | 0.00 | 0.00 | 77 | 1008.4 |
| 20260508224034 | 23 | 138 | 6.4 | 17.7 | 0.00 | 0.00 | 0.00 | 78 | 1008.4 |
| 20260508223533 | 23 | 181 | 9.7 | 17.7 | 0.00 | 0.00 | 0.00 | 76 | 1008.5 |
| 20260508223044 | 23 | 145 | 11.3 | 17.7 | 0.00 | 0.00 | 0.00 | 76 | 1008.5 |
| 20260508222532 | 23 | 122 | 9.7 | 20.9 | 0.00 | 0.00 | 0.00 | 77 | 1008.4 |
| 20260508222031 | 23 | 145 | 12.9 | 20.9 | 0.00 | 0.00 | 0.00 | 78 | 1008.4 |
| 20260508221548 | 23 | 122 | 12.9 | 19.3 | 0.00 | 0.00 | 0.00 | 77 | 1008.3 |
| 20260508221034 | 23 | 122 | 12.9 | 20.9 | 0.00 | 0.00 | 0.00 | 77 | 1008.4 |
| 20260508220533 | 23 | 141 | 14.5 | 20.9 | 0.00 | 0.00 | 0.00 | 77 | 1008.4 |
| 20260508220044 | 23 | 159 | 11.3 | 20.9 | 0.00 | 0.00 | 0.00 | 77 | 1008.4 |
| 20260508215534 | 23 | 143 | 12.9 | 22.5 | 0.00 | 0.00 | 0.00 | 77 | 1008.5 |
| 20260508215032 | 23 | 139 | 14.5 | 22.5 | 0.00 | 0.00 | 0.00 | 78 | 1008.6 |
| 20260508214618 | 23 | 136 | 14.5 | 20.9 | 0.00 | 0.00 | 0.00 | 79 | 1008.7 |
| 20260508214034 | 22 | 144 | 14.5 | 20.9 | 0.00 | 0.00 | 0.00 | 79 | 1008.7 |
| 20260508213533 | 22 | 115 | 12.9 | 20.9 | 0.00 | 0.00 | 0.00 | 79 | 1008.9 |